• In Österreich
  • Länderverzeichnis
  • Für 7 Tage
  • Wassertemperatur
  • Satellitenkarten
  • Wetterkarte
  • News
  • Widgets
  • user-avatar
    Anmelden

    Stündliche Wetter Bregenz

    Heute, 19 August, Sonntag

    Zeit Temperatur Niederschläge Wind Luftdruck Luftfeuchtigkeit
    00:00 +13°C° 0,2 mm 1 m/S 651 mmHg 94%
    01:00 +13°C° 0 mm 1 m/S 651 mmHg 94%
    02:00 +12°C° 0,2 mm 1 m/S 651 mmHg 94%
    03:00 +12°C° 0,2 mm 1 m/S 651 mmHg 94%
    04:00 +12°C° 0,2 mm 1 m/S 651 mmHg 94%
    05:00 +13°C° 0,1 mm 1 m/S 651 mmHg 93%
    06:00 +13°C° 0,1 mm 1 m/S 651 mmHg 91%
    07:00 +14°C° 0 mm 1 m/S 652 mmHg 88%
    08:00 +16°C° 0,4 mm 1 m/S 652 mmHg 84%
    09:00 +18°C° 0,4 mm 1 m/S 652 mmHg 79%
    10:00 +20°C° 0,4 mm 1 m/S 653 mmHg 74%
    11:00 +21°C° 0,5 mm 1 m/S 653 mmHg 72%
    12:00 +20°C° 0,5 mm 2 m/S 653 mmHg 69%
    13:00 +21°C° 0,5 mm 2 m/S 653 mmHg 67%
    14:00 +21°C° 0,6 mm 2 m/S 653 mmHg 68%
    15:00 +21°C° 0,6 mm 2 m/S 653 mmHg 70%
    16:00 +21°C° 0,6 mm 2 m/S 652 mmHg 71%
    17:00 +20°C° 0,6 mm 1 m/S 652 mmHg 77%
    18:00 +19°C° 0,6 mm 1 m/S 652 mmHg 82%
    19:00 +16°C° 0,6 mm 1 m/S 651 mmHg 88%
    20:00 +15°C° 0,4 mm 1 m/S 651 mmHg 90%
    21:00 +15°C° 0,4 mm 1 m/S 651 mmHg 92%
    22:00 +14°C° 0,4 mm 1 m/S 651 mmHg 93%
    23:00 +13°C° 0 mm 1 m/S 651 mmHg 94%

    Morgen, 20 August, Montag

    Zeit Temperatur Niederschläge Wind Luftdruck Luftfeuchtigkeit
    00:00 +13°C° 0 mm 1 m/S 651 mmHg 94%
    01:00 +13°C° 0 mm 1 m/S 651 mmHg 94%
    02:00 +12°C° 0 mm 1 m/S 651 mmHg 94%
    03:00 +12°C° 0 mm 1 m/S 650 mmHg 94%
    04:00 +12°C° 0 mm 1 m/S 650 mmHg 94%
    05:00 +13°C° 0 mm 1 m/S 650 mmHg 93%
    06:00 +13°C° 0 mm 1 m/S 651 mmHg 92%
    07:00 +13°C° 0 mm 0 m/S 651 mmHg 91%
    08:00 +16°C° 0 mm 1 m/S 651 mmHg 84%
    09:00 +19°C° 0 mm 1 m/S 652 mmHg 78%
    10:00 +20°C° 0 mm 1 m/S 652 mmHg 71%
    11:00 +21°C° 0,2 mm 1 m/S 652 mmHg 70%
    12:00 +21°C° 0,2 mm 1 m/S 652 mmHg 69%
    13:00 +21°C° 0,2 mm 2 m/S 652 mmHg 68%
    14:00 +21°C° 0,5 mm 2 m/S 652 mmHg 70%
    15:00 +20°C° 0,5 mm 2 m/S 652 mmHg 71%
    16:00 +20°C° 0,5 mm 2 m/S 652 mmHg 73%
    17:00 +20°C° 0,4 mm 1 m/S 651 mmHg 78%
    18:00 +19°C° 0,4 mm 1 m/S 651 mmHg 83%
    19:00 +16°C° 0,4 mm 1 m/S 651 mmHg 88%
    20:00 +15°C° 0 mm 1 m/S 651 mmHg 90%
    21:00 +14°C° 0 mm 1 m/S 651 mmHg 92%
    22:00 +13°C° 0 mm 1 m/S 651 mmHg 94%
    23:00 +13°C° 0 mm 1 m/S 651 mmHg 95%

    übermorgen, 21 August, Dienstag

    Zeit Temperatur Niederschläge Wind Luftdruck Luftfeuchtigkeit
    00:00 +13°C° 0 mm 1 m/S 651 mmHg 95%
    01:00 +12°C° 0 mm 1 m/S 650 mmHg 95%
    02:00 +12°C° 0 mm 1 m/S 650 mmHg 95%
    03:00 +12°C° 0 mm 1 m/S 650 mmHg 95%
    04:00 +11°C° 0 mm 1 m/S 650 mmHg 94%
    05:00 +12°C° 0 mm 1 m/S 650 mmHg 92%
    06:00 +13°C° 0 mm 1 m/S 650 mmHg 91%
    07:00 +14°C° 0 mm 1 m/S 651 mmHg 89%
    08:00 +16°C° 0 mm 1 m/S 651 mmHg 81%
    09:00 +19°C° 0 mm 1 m/S 652 mmHg 73%
    10:00 +21°C° 0 mm 1 m/S 652 mmHg 65%
    11:00 +21°C° 0,2 mm 2 m/S 652 mmHg 63%
    12:00 +23°C° 0,2 mm 2 m/S 652 mmHg 62%
    13:00 +23°C° 0,2 mm 2 m/S 652 mmHg 60%
    14:00 +23°C° 0,7 mm 2 m/S 652 mmHg 63%
    15:00 +23°C° 0,7 mm 2 m/S 652 mmHg 67%
    16:00 +21°C° 0,7 mm 2 m/S 651 mmHg 70%
    17:00 +20°C° 0,8 mm 2 m/S 651 mmHg 76%
    18:00 +19°C° 0,8 mm 1 m/S 651 mmHg 82%
    19:00 +18°C° 0,8 mm 1 m/S 650 mmHg 89%
    20:00 +16°C° 0,5 mm 1 m/S 650 mmHg 90%
    21:00 +16°C° 0,5 mm 1 m/S 651 mmHg 91%
    22:00 +15°C° 0,5 mm 1 m/S 651 mmHg 92%
    23:00 +15°C° 0,1 mm 1 m/S 651 mmHg 92%

    22 August, Mittwoch

    Zeit Temperatur Niederschläge Wind Luftdruck Luftfeuchtigkeit
    00:00 +14°C° 0,1 mm 1 m/S 650 mmHg 92%
    01:00 +14°C° 0,1 mm 1 m/S 650 mmHg 92%
    02:00 +14°C° 0 mm 1 m/S 650 mmHg 91%
    03:00 +13°C° 0 mm 1 m/S 650 mmHg 91%
    04:00 +13°C° 0 mm 1 m/S 650 mmHg 91%
    05:00 +13°C° 0 mm 1 m/S 650 mmHg 90%
    06:00 +14°C° 0 mm 1 m/S 650 mmHg 89%
    07:00 +15°C° 0 mm 1 m/S 650 mmHg 88%
    08:00 +18°C° 0,1 mm 1 m/S 651 mmHg 80%
    09:00 +20°C° 0,1 mm 1 m/S 651 mmHg 72%
    10:00 +22°C° 0,1 mm 1 m/S 652 mmHg 64%
    11:00 +23°C° 0,5 mm 1 m/S 652 mmHg 63%
    12:00 +23°C° 0,5 mm 1 m/S 652 mmHg 61%
    13:00 +24°C° 0,5 mm 1 m/S 652 mmHg 60%
    14:00 +23°C° 0,8 mm 1 m/S 651 mmHg 63%
    15:00 +23°C° 0,8 mm 1 m/S 651 mmHg 66%
    16:00 +22°C° 0,8 mm 1 m/S 651 mmHg 69%
    17:00 +21°C° 0,6 mm 1 m/S 651 mmHg 74%
    18:00 +19°C° 0,6 mm 1 m/S 650 mmHg 79%
    19:00 +18°C° 0,6 mm 1 m/S 650 mmHg 84%
    20:00 +16°C° 0,2 mm 1 m/S 650 mmHg 86%
    21:00 +15°C° 0,2 mm 1 m/S 650 mmHg 87%
    22:00 +15°C° 0,2 mm 1 m/S 650 mmHg 88%
    23:00 +14°C° 0,2 mm 1 m/S 650 mmHg 88%

    23 August, Donnerstag

    Zeit Temperatur Niederschläge Wind Luftdruck Luftfeuchtigkeit
    00:00 +14°C° 0,2 mm 1 m/S 649 mmHg 89%
    01:00 +13°C° 0,2 mm 1 m/S 649 mmHg 89%
    02:00 +13°C° 0,3 mm 1 m/S 649 mmHg 89%
    03:00 +13°C° 0,3 mm 1 m/S 649 mmHg 89%
    04:00 +13°C° 0,3 mm 1 m/S 648 mmHg 89%
    05:00 +13°C° 0,3 mm 1 m/S 649 mmHg 88%
    06:00 +14°C° 0,3 mm 1 m/S 649 mmHg 87%
    07:00 +15°C° 0,3 mm 1 m/S 649 mmHg 86%
    08:00 +16°C° 0,1 mm 1 m/S 649 mmHg 79%
    09:00 +19°C° 0,1 mm 1 m/S 650 mmHg 72%
    10:00 +21°C° 0,1 mm 1 m/S 650 mmHg 65%
    11:00 +22°C° 0,3 mm 1 m/S 650 mmHg 63%
    12:00 +23°C° 0,3 mm 1 m/S 650 mmHg 61%
    13:00 +23°C° 0,3 mm 2 m/S 649 mmHg 58%
    14:00 +23°C° 0,8 mm 1 m/S 649 mmHg 62%
    15:00 +22°C° 0,8 mm 1 m/S 649 mmHg 66%
    16:00 +22°C° 0,8 mm 1 m/S 649 mmHg 70%
    17:00 +20°C° 0,6 mm 1 m/S 648 mmHg 74%
    18:00 +19°C° 0,6 mm 1 m/S 648 mmHg 79%
    19:00 +16°C° 0,6 mm 1 m/S 648 mmHg 84%
    20:00 +16°C° 0,1 mm 1 m/S 647 mmHg 85%
    21:00 +15°C° 0,1 mm 1 m/S 647 mmHg 86%
    22:00 +14°C° 0,1 mm 2 m/S 647 mmHg 86%
    23:00 +14°C° 0 mm 2 m/S 647 mmHg 86%

    24 August, Freitag

    Zeit Temperatur Niederschläge Wind Luftdruck Luftfeuchtigkeit
    00:00 +13°C° 0 mm 2 m/S 646 mmHg 86%
    01:00 +13°C° 0 mm 2 m/S 646 mmHg 86%
    02:00 +13°C° 0 mm 2 m/S 645 mmHg 86%
    03:00 +13°C° 0 mm 2 m/S 645 mmHg 86%
    04:00 +13°C° 0 mm 2 m/S 645 mmHg 86%
    05:00 +13°C° 0,1 mm 1 m/S 645 mmHg 85%
    06:00 +14°C° 0,1 mm 1 m/S 645 mmHg 84%
    07:00 +14°C° 0,1 mm 1 m/S 645 mmHg 83%
    08:00 +16°C° 0,4 mm 2 m/S 645 mmHg 79%
    09:00 +17°C° 0,4 mm 2 m/S 645 mmHg 75%
    10:00 +18°C° 0,4 mm 2 m/S 646 mmHg 72%
    11:00 +18°C° 0,9 mm 2 m/S 645 mmHg 74%
    12:00 +18°C° 0,9 mm 2 m/S 645 mmHg 77%
    13:00 +18°C° 0,9 mm 2 m/S 645 mmHg 80%
    14:00 +16°C° 2,1 mm 2 m/S 645 mmHg 85%
    15:00 +15°C° 2,1 mm 2 m/S 644 mmHg 90%
    16:00 +14°C° 2,1 mm 2 m/S 644 mmHg 94%
    17:00 +13°C° 3,1 mm 2 m/S 644 mmHg 95%
    18:00 +12°C° 3,1 mm 2 m/S 643 mmHg 96%
    19:00 +11°C° 3,1 mm 1 m/S 643 mmHg 96%
    20:00 +10°C° 3,3 mm 2 m/S 643 mmHg 97%
    21:00 +9°C° 3,3 mm 2 m/S 643 mmHg 97%
    22:00 +8°C° 3,3 mm 2 m/S 643 mmHg 97%
    23:00 +8°C° 2,7 mm 2 m/S 643 mmHg 97%
    Mehr zeigen